Starlink 2017

operational
NORAD ID: 47351 Int'l Des: 2021-005 Owner: SPXS Country: US Constellation: starlink
LEOCIRCULARSTARLINK_TYPE

Über Starlink 2017

Beschreibung wird geladen...

Live-Position

3D-Globus wird geladen...

Nächste Überflüge

Höhenverlauf

Altitude vs Time

uPlot chart will show altitude changes over time

Zweizeiliger Elementsatz

1 47351U 21005C 25304.53623567 -.00001146 00000-0 -57990-4 0 9997
2 47351 53.0541 241.4013 0002463 70.7996 289.3260 15.06424034264133
Epoch: 31. Okt. 2025 • Age: 22 hours

Aktueller Status

Höhe 554.4 km
Geschwindigkeit 7.58 km/s
Subsatellitenpunkt -23.96°S, 11.44°E
Startdatum 20. Jan. 2021
Alter 4.7 years
Typ internet

Technische Details

Klassifizierung Payload
Masse 260.00 kg
Trockenmasse 248.00 kg
Gesamtmasse 260.00 kg
Länge 0.20 m
Durchmesser 2.80 m
Spannweite 9.00 m
Form Box + pan
Hersteller SPXS
Bus-Typ Starlink
Phasenstatus In Orbit
Besitzer/Staat SPXS/US

Große Konstellationen

Loading constellations...